Satellite: NO-44
Catalog number: 26931
Epoch time:      10086.48993361
Element set:     419
Inclination:      067.0515 deg
RA of node:       054.4594 deg
Eccentricity:    0.0006341
Arg of perigee:   264.0045 deg
Mean anomaly:     096.0341 deg
Mean motion:   14.29589444 rev/day
Decay rate:       2.12e-06 rev/day^2
Epoch rev:           44307
Checksum:              297

Satellite: SO-50
Catalog number: 27607
Epoch time:      10086.66047934
Element set:     135
Inclination:      064.5568 deg
RA of node:       244.1392 deg
Eccentricity:    0.0036185
Arg of perigee:   115.4413 deg
Mean anomaly:     245.0412 deg
Mean motion:   14.71516258 rev/day
Decay rate:        6.6e-07 rev/day^2
Epoch rev:           39038
Checksum:              295

Satellite: CO-55
Catalog number: 27844
Epoch time:      10086.04726911
Element set:     810
Inclination:      098.7124 deg
RA of node:       096.1968 deg
Eccentricity:    0.0010822
Arg of perigee:   050.0181 deg
Mean anomaly:     310.1940 deg
Mean motion:   14.20693716 rev/day
Decay rate:        7.5e-07 rev/day^2
Epoch rev:           34942
Checksum:              289

Satellite: CO-57
Catalog number: 27848
Epoch time:      10085.99446489
Element set:     761
Inclination:      098.7167 deg
RA of node:       095.2267 deg
Eccentricity:    0.0010743
Arg of perigee:   054.8414 deg
Mean anomaly:     305.3790 deg
Mean motion:   14.20488036 rev/day
Decay rate:        5.7e-07 rev/day^2
Epoch rev:           34937
Checksum:              344

Satellite: AO-51
Catalog number: 28375
Epoch time:      10085.98679074
Element set:     636
Inclination:      098.0595 deg
RA of node:       084.1761 deg
Eccentricity:    0.0084670
Arg of perigee:   347.4952 deg
Mean anomaly:     012.4138 deg
Mean motion:   14.40675736 rev/day
Decay rate:        4.3e-07 rev/day^2
Epoch rev:           30167
Checksum:              329

Satellite: GENESAT1
Catalog number: 29655
Epoch time:      10086.53918609
Element set:     990
Inclination:      040.0189 deg
RA of node:       196.0860 deg
Eccentricity:    0.0005258
Arg of perigee:   081.9611 deg
Mean anomaly:     278.1924 deg
Mean motion:   15.78904842 rev/day
Decay rate:     6.6641e-04 rev/day^2
Epoch rev:           18702
Checksum:              329

Satellite: CP3
Catalog number: 31129
Epoch time:      10086.08764069
Element set:     538
Inclination:      097.9476 deg
RA of node:       130.0168 deg
Eccentricity:    0.0103788
Arg of perigee:   128.2709 deg
Mean anomaly:     232.7964 deg
Mean motion:   14.52228511 rev/day
Decay rate:       1.74e-06 rev/day^2
Epoch rev:           15594
Checksum:              316

Satellite: CO-65
Catalog number: 32785
Epoch time:      10086.11098096
Element set:     638
Inclination:      097.9034 deg
RA of node:       152.1441 deg
Eccentricity:    0.0014885
Arg of perigee:   187.3103 deg
Mean anomaly:     172.7885 deg
Mean motion:   14.81611874 rev/day
Decay rate:       2.21e-06 rev/day^2
Epoch rev:           10333
Checksum:              305

Satellite: KKS-1
Catalog number: 33493
Epoch time:      10086.77160792
Element set:     332
Inclination:      098.0746 deg
RA of node:       205.6193 deg
Eccentricity:    0.0020952
Arg of perigee:   047.4427 deg
Mean anomaly:     312.8558 deg
Mean motion:   14.80912108 rev/day
Decay rate:       6.84e-06 rev/day^2
Epoch rev:            6343
Checksum:              301

Satellite: SOHLA-1
Catalog number: 33496
Epoch time:      10086.79130035
Element set:      61
Inclination:      098.0493 deg
RA of node:       196.9572 deg
Eccentricity:    0.0007708
Arg of perigee:   102.0227 deg
Mean anomaly:     258.1843 deg
Mean motion:   14.69479049 rev/day
Decay rate:       -3.7e-07 rev/day^2
Epoch rev:            6292
Checksum:              309

/EX
SB KEPS @ AMSAT  $ORB10087.W
Orbital Elements  10087.WEATHER

HR AMSAT ORBITAL ELEMENTS FOR WEATHER SATELLITES
FROM WA5QGD FORT WORTH,TX March 28, 2010
Send Subscribe/unsubscribe to KEPS at http://www.amsat.org/mailman/listinfo/kep
BID: ORB10087.W
TO ALL RADIO AMATEURS BT

Satellite: NOAA-10
Catalog number: 16969
Epoch time:      10086.21017056
Element set:       5
Inclination:      098.6659 deg
RA of node:       115.9191 deg
Eccentricity:    0.0013293
Arg of perigee:   091.4799 deg
Mean anomaly:     268.7904 deg
Mean motion:   14.27410179 rev/day
Decay rate:       -6.3e-07 rev/day^2
Epoch rev:           22388
Checksum:              317

Satellite: NOAA-11
Catalog number: 19531
Epoch time:      10086.28191507
Element set:      21
Inclination:      098.7670 deg
RA of node:       176.7018 deg
Eccentricity:    0.0012143
Arg of perigee:   024.8378 deg
Mean anomaly:     335.3348 deg
Mean motion:   14.14919507 rev/day
Decay rate:        8.3e-07 rev/day^2
Epoch rev:           10955
Checksum:              294

Satellite: NOAA-12
Catalog number: 21263
Epoch time:      10086.37613941
Element set:     506
Inclination:      098.7693 deg
RA of node:       099.5361 deg
Eccentricity:    0.0013165
Arg of perigee:   047.3595 deg
Mean anomaly:     312.8693 deg
Mean motion:   14.25623993 rev/day
Decay rate:        4.8e-07 rev/day^2
Epoch rev:           98074
Checksum:              328

